sat.trackr.live / text

‹ back to catalog

BEIDOU-2 G3

NORAD 36590 · 2010-024A

PAYLOAD ACTIVE UNKNOWN

§ Identity

Operator
Country
PRC
Launch date
2010-06-02
Launch site
XICLF
Launch vehicle
Mass (kg)
RCS (m²)
52.40

Purposes: comms

External: N2YO · Heavens-Above · Gunter

§ Orbital elements

Epoch: 2026-05-25T04:07:22.580832Z

Period
1,436.07 min
Inclination
4.4639°
Eccentricity
0.0008429
Mean motion
1.00273563 rev/d
Perigee alt
35,750.6 km
Apogee alt
35,821.6 km
Semi-major
42,164.2 km
B*
0.0000e+0
RAAN
61.6179°
Arg perigee
344.3847°
Mean anomaly
338.2128°
Rev number
5,853

§ Raw data

BEIDOU-2 G31 36590U 10024A   26145.17178913 -.00000137  00000+0  00000+0 0  99952 36590   4.4639  61.6179 0008429 344.3847 338.2128  1.00273563 58532

JSON: /api/v1/satellites/36590 · /tle

For live sub-satellite position, see the globe view (requires WebGL).

§ Visibility from observer

Set your observer location to see the next 7 days of passes ≥ 10°. The values pass through the URL so the page stays shareable.

No JS? Fill the form by hand. The geolocation button needs JavaScript.